Location: Clatteringshaws Loch
(55.0508°N, 4.2860°W)
Time: 00:48:41
(UTC+00:00)

ALOS - Visible Passes

Search period start: 17 January 2017 00:00
Search period end: 27 January 2017 00:00
Orbit: 684 x 687 km, 97.9° (Epoch: 16 January)

Date Brightness Start Highest point End Pass type
(mag) Time Alt. Az. Time Alt. Az. Time Alt. Az.
17 Jan 5.5 06:48:20 10° ENE 06:50:09 12° E 06:51:57 10° ESE visible
17 Jan 3.1 17:57:58 10° ESE 18:01:54 27° ENE 18:05:50 10° N visible
17 Jan 2.9 19:34:30 10° S 19:39:06 56° W 19:43:43 10° NNW visible
18 Jan 4.9 07:24:28 10° NE 07:28:15 24° E 07:32:01 10° SE visible
18 Jan 2.4 18:34:44 10° SE 18:39:14 50° ENE 18:43:47 10° N visible
18 Jan 4.1 20:12:54 10° SSW 20:16:56 28° W 20:20:59 10° NNW visible
19 Jan 3.5 17:36:30 10° E 17:39:51 20° NE 17:43:13 10° N visible
19 Jan 2.2 19:12:05 10° SSE 19:16:46 83° WSW 19:21:30 10° NNW visible
19 Jan 5.1 20:52:24 10° WSW 20:54:59 15° W 20:57:34 10° NW visible
20 Jan 5.2 07:02:48 10° NE 07:05:42 16° E 07:08:36 10° SE visible
20 Jan 2.8 18:12:52 10° SE 18:17:06 35° ENE 18:21:20 10° N visible
20 Jan 3.4 19:50:05 10° SSW 19:54:30 41° W 19:58:58 10° NNW visible
21 Jan 4.4 07:39:32 10° NNE 07:43:44 31° E 07:47:53 10° SSE visible
21 Jan 3.9 17:15:21 10° E 17:17:52 15° NE 17:20:24 10° NNE visible
21 Jan 2.2 18:49:53 10° SSE 18:54:31 67° ENE 18:59:11 10° N visible
21 Jan 4.6 20:28:51 10° SW 20:32:25 21° W 20:36:01 10° NW visible
22 Jan 5.7 06:42:07 10° ENE 06:43:05 11° E 06:44:04 10° E visible
22 Jan 3.3 17:51:14 10° ESE 17:55:00 25° ENE 17:58:48 10° N visible
22 Jan 2.7 19:27:30 10° S 19:32:08 63° WSW 19:36:48 10° NNW visible
22 Jan 5.4 21:09:29 10° W 21:10:34 11° W 21:11:38 10° WNW visible
23 Jan 5.1 07:17:39 10° NE 07:21:14 21° E 07:24:48 10° SE visible
23 Jan 2.5 18:27:53 10° SE 18:32:19 45° ENE 18:36:48 10° N visible
23 Jan 4.0 20:05:47 10° SSW 20:09:56 31° W 20:14:08 10° NNW visible
24 Jan 3.7 17:29:50 10° E 17:32:59 18° NE 17:36:08 10° N visible
24 Jan 2.2 19:05:09 10° SSE 19:09:49 88° E 19:14:33 10° NNW visible
24 Jan 5.0 20:45:01 10° SW 20:47:57 16° W 20:50:53 10° NW visible
25 Jan 5.3 06:56:07 10° NE 06:58:40 14° E 07:01:13 10° ESE visible
25 Jan 3.0 18:06:05 10° ESE 18:10:11 32° ENE 18:14:19 10° N visible
25 Jan 3.2 19:43:01 10° S 19:47:31 47° W 19:52:04 10° NNW visible
26 Jan 4.6 07:32:40 10° NNE 07:36:43 28° E 07:40:44 10° SSE visible
26 Jan 2.2 18:43:00 10° SSE 18:47:35 59° ENE 18:52:13 10° N visible
26 Jan 4.5 20:21:38 10° SW 20:25:24 24° W 20:29:13 10° NW visible
